Regional Weather Roundup
Issued by NWS San Angelo, TX

Home | Current Version | Previous Version | Text Only | Print | Product List | Glossary On
Versions: 1 2 3 4 5 6 7 8 9 10 11 12 13 14 15 16 17 18 19 20 21 22 23 24 25 26 27 28 29 30 31 32 33 34 35 36 37 38 39 40 41 42 43 44 45 46 47 48 49 50
774
ASUS44 KSJT 100711
RWRSJT
WEST CENTRAL TEXAS REGIONAL WEATHER ROUNDUP
NATIONAL WEATHER SERVICE SAN ANGELO TX
100 AM CST WED FEB 10 2016

NOTE: "FAIR" INDICATES FEW OR NO CLOUDS BELOW 12,000 FEET WITH NO
SIGNIFICANT WEATHER AND/OR OBSTRUCTIONS TO VISIBILITY.

TXZ049-054-064>066-071>073-076>078-098-099-113-114-127-128-139-140-
154-155-168>170-100800
...LOCATIONS ACROSS WEST CENTRAL TEXAS...

CITY           SKY/WX    TMP DP  RH WIND       PRES   REMARKS
SAN ANGELO     PTCLDY    37  24  59 W5        30.32F WCI  33
ABILENE        PTCLDY    43  30  60 SE6       30.32S WCI  39
DYESS AFB      PTCLDY    37  28  70 S2        30.30F
JUNCTION       PTCLDY    36  25  64 W5        30.33F WCI  32
SWEETWATER     CLEAR     48  22  35 SW9       30.34S
BROWNWOOD      PTCLDY    36  28  75 MISG      30.33R
COLEMAN        MOSUNNY   41  28  61 CALM      30.33S
SONORA         PTCLDY    32  25  74 CALM      30.39S
OZONA          FAIR      34  25  69 NE5       30.38F WCI  30
BRADY          NOT AVBL
$$

TEXAS PANHANDLE/OKLAHOMA PANHANDLE

CITY           SKY/WX    TMP DP  RH WIND       PRES   REMARKS
AMARILLO       CLEAR     40  23  50 NW6       30.31F WCI  36
BORGER         CLEAR     40  25  55 W6        30.30F WCI  36
CANADIAN       CLEAR     28  25  87 S3        30.29F
DALHART        CLOUDY    34  20  56 NW7       30.32F WCI  28
DUMAS          SUNNY     32  22  67 W10       30.31S WCI  23
GUYMON         NOT AVBL
HEREFORD       NOT AVBL
PAMPA          SUNNY     38  28  65 W6        30.29F WCI  34
PERRYTON       CLEAR     32  26  78 W8        30.26F WCI  25
$$

SOUTHERN PANHANDLE/SOUTH PLAINS/ROLLING PLAINS

CITY           SKY/WX    TMP DP  RH WIND       PRES   REMARKS
LUBBOCK        CLEAR     37  19  48 W7        30.32F WCI  32
SNYDER           N/A     47  23  38 NW5       30.33S
CHILDRESS      PTCLDY    36  25  64 SE9       30.31F WCI  29
SEMINOLE       SUNNY     39  21  48 W7        30.36F WCI  34
$$

PERMIAN BASIN

CITY           SKY/WX    TMP DP  RH WIND       PRES   REMARKS
MIDLAND        CLEAR     38  25  59 W5        30.35S WCI  34
ODESSA         CLEAR     42  24  49 W5        30.35F WCI  39
WINK           CLEAR     33  20  58 N7        30.34F WCI  27
$$

FAR WEST/SOUTHWEST MOUNTAINS/TRANS PECOS

CITY           SKY/WX    TMP DP  RH WIND       PRES   REMARKS
ALPINE         CLOUDY    34  16  47 W9        30.42F WCI  27
DRYDEN           N/A     48  19  31 W9        30.33F
EL PASO        CLEAR     44  18  35 CALM      30.34S
FORT STOCKTON  CLEAR     42  22  44 S10       30.35F WCI  36
GUADALUPE PASS CLOUDY    45  20  36 E13       30.39F WCI  39
MARFA          CLOUDY    31  16  54 NW6       30.40S WCI  25
PECOS          SUNNY     37  23  57 N5        30.34F WCI  33
$$

DALLAS/FORT WORTH METROPLEX

CITY           SKY/WX    TMP DP  RH WIND       PRES   REMARKS
DFW AIRPORT    PTCLDY    43  24  47 N3        30.32F
FTW MEACHAM    CLEAR     43  26  51 W3        30.34S
DAL-EXECUTIVE  CLEAR     42  23  46 N3        30.31F
GRAND PRAIRIE  CLEAR     45  25  45 CALM      30.35S
ADDISON        PTCLDY    44  28  52 N3        30.34F
MESQUITE       SUNNY     42  24  48 NW5       30.34S WCI  39
LANCASTER      SUNNY     37  19  48 CALM      30.34F
$$

NORTH CENTRAL TEXAS

CITY           SKY/WX    TMP DP  RH WIND       PRES   REMARKS
SHRMAN/DENISON SUNNY     37  23  56 CALM      30.32S
GAINESVILLE    PTCLDY    32  24  71 SW8       30.34R WCI  25
BRIDGEPORT     SUNNY     36  27  68 SW3       30.36R
DENTON         CLEAR     31  25  78 NW5       30.33S WCI  26
WAXAHACHIE     SUNNY     35  28  75 NW3       30.35S
GRANBURY       SUNNY     37  28  70 CALM      30.35F
$$

WESTERN NORTH TEXAS

CITY           SKY/WX    TMP DP  RH WIND       PRES   REMARKS
WICHITA FALLS  PTCLDY    35  24  64 SW8       30.33S WCI  29
VERNON         SUNNY     35  23  62 SW3       30.34F
BRECKENRIDGE   SUNNY     38  28  67 CALM      30.34R
COMANCHE       CLEAR     46  31  56 S3        30.33S
$$

CENTRAL AND SOUTH CENTRAL TEXAS

CITY           SKY/WX    TMP DP  RH WIND       PRES   REMARKS
AUSTIN/BERGSTM PTCLDY    38  33  82 N3        30.33S
WACO           CLEAR     39  27  62 N3        30.34F
HILLSBORO      SUNNY     39  25  56 N5        30.34S WCI  36
TEMPLE         CLEAR     40  31  70 NE6       30.35R WCI  36
KILLEEN-GRAY   CLEAR     44  30  56 CALM      30.32S
FORT HOOD      CLEAR     47  29  48 NE5       30.32R
GEORGETOWN     CLEAR     39  27  60 CALM      30.33S
LAGO VISTA     FAIR      50  29  44 E7        30.32F
SAN MARCOS     PTCLDY    46  30  53 N8        30.33S
NEW BRAUNFELS  PTCLDY    47  32  56 N6        30.31R
RANDOLPH AFB   PTCLDY    43  32  65 NW10      30.30S WCI  38
SAN ANTONIO    PTCLDY    47  32  56 NW5       30.31S
STINSON        PTCLDY    42  33  70 CALM      30.30R
PLEASANTON     NOT AVBL
LA GRANGE      PTCLDY    43  35  75 CALM      30.30S
GIDDINGS       SUNNY     42  34  71 E5        30.36S WCI  39
$$

EAST TEXAS

CITY           SKY/WX    TMP DP  RH WIND       PRES   REMARKS
PARIS          CLEAR     36  18  48 NW5       30.30S WCI  32
CLARKSVILLE    NOT AVBL
TYLER          PTCLDY    43  21  41 CALM      30.31S
LONGVIEW       CLEAR     38  22  52 NW5       30.30S WCI  34
PALESTINE      SUNNY     44  26  51 NW3       30.34R
NACOGDOCHES    CLEAR     43  23  45 N5        30.31S
$$

TEXAS HILL COUNTRY AND EDWARDS PLATEAU

CITY           SKY/WX    TMP DP  RH WIND       PRES   REMARKS
LLANO          MOSUNNY   45  32  61 CALM      30.36S
HORSESHOE BAY  FAIR      46  32  59 SE3       30.33S
KERRVILLE      CLEAR     36  30  80 NW3       30.32F
FREDERICKSBRG  CLEAR     39  27  62 CALM      30.31F
ROCKSPRINGS    SUNNY     52  27  37 CALM      30.35F
HONDO          PTCLDY    40  24  53 N8        30.34S WCI  34
UVALDE         MOSUNNY   43  29  59 CALM      30.33S
DEL RIO        PTCLDY    47  27  45 CALM      30.31F
$$

SOUTHEAST TEXAS

CITY           SKY/WX    TMP DP  RH WIND       PRES   REMARKS
COLLEGE STN    CLEAR     51  28  41 N9        30.34R
CALDWELL       SUNNY     43  32  65 CALM      30.37R
CROCKETT       SUNNY     41  28  60 N5        30.35S WCI  38
BRENHAM        CLEAR     43  35  73 CALM      30.34R
HUNTSVILLE     CLEAR     44  29  55 N3        30.32S
CONROE         CLEAR     35  31  85 NW6       30.34R WCI  30
HOUSTON BUSH   CLEAR     46  31  55 CALM      30.33R
HOUSTON HOBBY  PTCLDY    46  33  60 CALM      30.32R
PERLAND        PTCLDY    43  35  73 CALM      30.34R
WHARTON        MOSUNNY   40  31  71 N3        30.33R
$$

THE UPPER TEXAS COAST

CITY           SKY/WX    TMP DP  RH WIND       PRES   REMARKS
ORANGE         SUNNY     45  29  53 NW3       30.32R
PORT ARTHUR    CLEAR     42  34  73 NW6       30.30R WCI  38
GALVESTON      CLEAR     51  41  68 W3        30.33R
ANGLETON       PTCLDY    42  36  79 CALM      30.32S
BAY CITY       MOSUNNY   44  41  89 CALM      30.31S
$$

TEXAS COASTAL BEND, RIO GRANDE PLAINS DEEP SOUTH TEXAS

CITY           SKY/WX    TMP DP  RH WIND       PRES   REMARKS
VICTORIA       PTCLDY    47  37  68 SW6       30.31R
BEEVILLE       FAIR      49  38  65 SW7       30.31F
ROCKPORT       CLEAR     54  48  80 SW8       30.31F
PORT ARANSAS   SUNNY     54  49  85 SW12      30.31S
PORT LAVACA    MOSUNNY   48  42  81 SW6       30.31S
CORPUS CHRISTI PTCLDY    47  36  65 SW8       30.32F
KINGSVILLE NAS PTCLDY    48  40  73 SW8       30.33S
COTULLA        CLEAR     46  27  47 CALM      30.32S
LAREDO         PTCLDY    50  31  48 E3        30.33S
BROWNSVILLE    CLEAR     49  45  86 SW5       30.35F
PORT ISABEL    CLEAR     50  46  86 SW8       30.33F
HEBBRONVILLE   NOT AVBL
MCALLEN        CLEAR     52  38  58 S3        30.35F
WESLACO        CLEAR     52  39  62 S7        30.34F
FALFURRIAS     SUNNY     47  35  63 SW5       30.33F
EDINBURG       SUNNY     48  33  56 CALM      30.35F
$$




USA.gov is the U.S. government's official web portal to all federal, state and local government web resources and services.